CW6037 Weather Reports


time (UTC)temp
F
wind
direction
speed
knots
gust
knots
rain 1hr
in
rain 24hr
in
rain mn
in
humidity
%
barometer
mb
20180818104552 72 243 0.0 2.6 0.00 0.73 0.00 100 1013.6
20180818103652 72 225 0.0 0.9 0.00 0.73 0.00 100 1013.5
20180818102752 72 225 0.0 0.9 0.00 0.73 0.00 100 1013.5
20180818101852 72 229 0.0 3.5 0.00 0.73 0.00 100 1013.5
20180818100952 72 244 0.0 0.9 0.00 0.73 0.00 100 1013.5
20180818100052 72 243 0.0 3.5 0.00 0.73 0.00 100 1013.5
20180818095151 72 249 0.0 5.2 0.00 0.73 0.00 100 1013.7
20180818094252 72 276 0.9 4.3 0.00 0.73 0.00 100 1013.7
20180818093351 72 275 0.0 5.2 0.00 0.73 0.00 100 1013.7
20180818092452 72 197 0.0 3.5 0.00 0.73 0.00 100 1013.9
20180818091552 72 233 0.0 4.3 0.00 0.73 0.00 100 1013.9
20180818090652 72 208 0.9 2.6 0.00 0.73 0.00 100 1013.8
20180818085752 72 194 0.9 4.3 0.00 0.73 0.00 100 1013.6
20180818084852 72 214 0.0 3.5 0.00 0.73 0.00 100 1013.6
20180818083952 72 205 0.9 5.2 0.00 0.73 0.00 100 1014.0
20180818083051 72 164 0.9 6.1 0.00 0.73 0.00 100 1014.0
20180818082152 72 216 0.0 1.7 0.00 0.73 0.00 100 1013.9
20180818081251 72 200 0.0 2.6 0.00 0.73 0.00 100 1013.9
20180818080352 72 226 0.9 3.5 0.00 0.73 0.00 100 1013.9
20180818075452 72 230 0.9 3.5 0.00 0.73 0.00 100 1014.0
20180818074552 72 259 0.0 3.5 0.00 0.73 0.00 100 1014.0
20180818073652 72 270 0.0 2.6 0.00 0.73 0.00 100 1014.1
20180818072752 72 192 0.0 3.5 0.00 0.73 0.00 100 1014.0
20180818071851 72 164 0.9 3.5 0.00 0.73 0.00 100 1014.0
20180818070951 72 218 0.0 2.6 0.00 0.73 0.00 100 1014.2
20180818070051 72 228 0.9 5.2 0.00 0.73 0.00 100 1014.2
20180818065152 72 137 0.0 2.6 0.00 0.73 0.00 100 1014.3
20180818064252 72 252 0.0 4.3 0.00 0.73 0.00 100 1014.0
20180818063351 72 239 0.0 4.3 0.00 0.73 0.00 100 1014.0
20180818062451 72 263 0.0 4.3 0.00 0.73 0.00 100 1014.6
20180818061552 72 299 0.0 0.9 0.00 0.73 0.00 100 1014.6
20180818060651 72 301 0.0 1.7 0.00 0.73 0.00 100 1014.6
20180818055752 72 287 0.0 2.6 0.00 0.73 0.00 100 1014.7
20180818054855 72 227 0.0 0.9 0.00 0.73 0.00 100 1014.7
20180818053952 72 0 0.0 0.0 0.00 0.73 0.00 100 1014.7
20180818053052 72 227 0.0 2.6 0.00 0.73 0.00 100 1014.7
20180818052151 72 223 0.0 0.9 0.00 0.73 0.00 100 1015.0
20180818051252 72 0 0.0 0.0 0.00 0.73 0.00 100 1015.1
20180818050352 72 232 0.0 0.9 0.00 0.73 0.00 100 1015.1
20180818045452 72 232 0.0 0.9 0.00 0.73 0.00 100 1015.1
20180818044552 72 0 0.0 0.0 0.00 0.73 0.00 100 1015.1
20180818043652 72 232 0.0 0.9 0.00 0.73 0.00 100 1015.1
20180818042752 72 0 0.0 0.0 0.00 0.73 0.00 100 1015.2
20180818041852 72 232 0.0 0.9 0.00 0.73 0.00 100 1015.2
20180818040952 72 232 0.0 0.9 0.00 0.73 0.00 100 1015.2
20180818040051 72 235 0.0 1.7 0.00 0.73 0.00 99 1015.2
20180818035152 72 238 0.0 0.9 0.00 0.73 0.73 99 1015.2
20180818034252 72 213 0.9 3.5 0.00 0.73 0.73 99 1015.3
20180818033351 72 199 0.9 3.5 0.00 0.73 0.73 100 1015.4
20180818032451 72 136 0.0 3.5 0.00 0.73 0.73 100 1015.5
20180818031552 73 185 0.0 0.9 0.00 0.73 0.73 100 1015.5
20180818030651 73 186 0.0 0.9 0.00 0.73 0.73 100 1015.6
20180818025752 72 186 0.0 0.9 0.00 0.73 0.73 100 1015.7
20180818024852 72 186 0.0 0.9 0.00 0.73 0.73 100 1015.7
20180818023952 72 186 0.0 0.9 0.00 0.73 0.73 100 1015.8
20180818023051 72 186 0.0 0.9 0.00 0.73 0.73 99 1015.8
20180818022151 72 0 0.0 0.0 0.00 0.73 0.73 99 1015.6
20180818021252 72 0 0.0 0.0 0.00 0.73 0.73 99 1015.7
20180818020351 72 0 0.0 0.0 0.00 0.73 0.73 99 1015.7
20180818015452 72 186 0.0 0.9 0.00 0.73 0.73 99 1015.7
20180818014551 72 186 0.0 0.9 0.00 0.73 0.73 99 1015.7
20180818013652 72 186 0.0 1.7 0.00 0.73 0.73 99 1015.6
20180818004335 72 139 0.0 2.6 0.54 0.73 0.73 98 1012.4
20180818003435 72 127 0.9 3.5 0.53 0.72 0.72 98 1012.4
20180818002535 72 133 0.9 6.1 0.53 0.70 0.70 97 1012.3
20180818001635 73 251 1.7 10.4 0.47 0.64 0.64 96 1012.3
20180818000735 74 245 0.9 10.4 0.31 0.43 0.43 96 1012.2
20180817235835 74 163 0.0 2.6 0.18 0.26 0.26 97 1011.5
20180817231625 77 202 1.7 9.6 0.08 0.16 0.16 88 1011.5
20180817225826 82 204 0.0 3.5 0.00 0.08 0.08 79 1010.6
20180817223807 83 214 0.0 3.5 0.00 0.08 0.08 78 1010.5
20180817222907 83 252 0.0 4.3 0.00 0.08 0.08 76 1010.8
20180817222006 84 262 0.0 2.6 0.00 0.08 0.08 75 1010.8
20180817221107 84 245 0.0 2.6 0.00 0.08 0.08 74 1011.1
20180817220207 85 212 0.0 1.7 0.00 0.08 0.08 72 1011.1
20180817215307 86 247 0.9 4.3 0.00 0.08 0.08 70 1011.1
20180817214407 86 262 2.6 7.8 0.00 0.08 0.08 69 1011.1
20180817213507 87 252 2.6 14.8 0.00 0.08 0.08 69 1011.2
20180817212607 87 244 1.7 9.6 0.00 0.08 0.08 71 1011.2
20180817211707 87 257 2.6 8.7 0.00 0.08 0.08 69 1011.2
20180817210807 86 281 0.9 3.5 0.00 0.08 0.08 71 1011.2
20180817205907 86 260 1.7 9.6 0.00 0.08 0.08 70 1011.5
20180817205006 87 234 2.6 6.1 0.00 0.08 0.08 67 1011.5
20180817204106 88 256 2.6 7.0 0.00 0.08 0.08 67 1011.3
20180817203207 89 223 1.7 8.7 0.00 0.08 0.08 65 1011.4
20180817202307 90 255 2.6 8.7 0.00 0.08 0.08 65 1011.6
20180817201407 89 225 2.6 7.8 0.00 0.08 0.08 63 1011.6
20180817200507 89 250 2.6 7.8 0.00 0.08 0.08 64 1011.6
20180817195607 89 265 3.5 8.7 0.00 0.08 0.08 65 1011.8
20180817193807 88 248 3.5 11.3 0.00 0.08 0.08 66 1012.2
20180817192907 88 262 4.3 11.3 0.00 0.08 0.08 65 1012.4
20180817192007 89 253 4.3 11.3 0.00 0.08 0.08 65 1012.4
20180817191107 89 248 3.5 9.6 0.00 0.08 0.08 66 1012.7
20180817190207 88 264 4.3 15.6 0.00 0.08 0.08 65 1012.7
20180817185307 88 270 3.5 11.3 0.00 0.08 0.08 66 1013.0
20180817184407 88 268 3.5 10.4 0.00 0.08 0.08 65 1013.2
20180817183507 88 266 5.2 13.0 0.00 0.08 0.08 67 1013.2
20180817182607 87 252 4.3 13.9 0.00 0.08 0.08 66 1013.3
20180817181707 87 259 3.5 9.6 0.00 0.08 0.08 67 1013.3
20180817180807 87 250 2.6 9.6 0.00 0.08 0.08 68 1013.6
20180817175907 86 270 2.6 7.8 0.00 0.08 0.08 71 1013.7
20180817175007 85 268 3.5 7.0 0.00 0.08 0.08 73 1013.7
20180817174107 85 255 1.7 9.6 0.00 0.08 0.08 72 1013.7
20180817173207 86 181 0.9 5.2 0.00 0.08 0.08 70 1013.7
20180817172307 86 204 1.7 7.0 0.00 0.08 0.08 71 1014.0
20180817171407 86 245 2.6 12.2 0.00 0.08 0.08 71 1014.3
20180817170507 85 198 1.7 12.2 0.00 0.08 0.08 74 1014.3
20180817165607 84 209 1.7 6.1 0.00 0.08 0.08 74 1014.6
20180817164706 83 252 2.6 10.4 0.00 0.08 0.08 78 1014.6
20180817163806 83 260 3.5 7.8 0.00 0.08 0.08 77 1014.8
20180817162906 82 218 1.7 7.0 0.00 0.08 0.08 79 1014.8
20180817162007 82 264 2.6 7.0 0.00 0.08 0.08 80 1014.8
20180817161106 82 213 1.7 6.1 0.00 0.08 0.08 81 1015.2
20180817155307 80 262 1.7 7.0 0.00 0.08 0.08 88 1015.4
20180817154407 79 270 0.9 7.0 0.00 0.08 0.08 88 1015.5
20180817153507 77 255 0.9 4.3 0.00 0.08 0.08 92 1015.5
20180817152607 76 143 0.9 5.2 0.00 0.08 0.08 95 1015.8
20180817151707 75 248 0.0 0.9 0.00 0.08 0.08 99 1015.8
20180817150806 74 0 0.0 0.0 0.00 0.08 0.08 100 1016.0
20180817145907 73 251 0.0 0.9 0.00 0.08 0.08 100 1016.2
20180817145007 73 251 0.0 0.9 0.00 0.08 0.08 100 1016.2
20180817144107 73 0 0.0 0.0 0.01 0.08 0.08 100 1016.5
20180817143206 72 0 0.0 0.0 0.02 0.08 0.08 100 1016.5
20180817142306 72 251 0.0 0.9 0.03 0.08 0.08 100 1016.8
20180817141407 72 251 0.0 0.9 0.05 0.08 0.08 100 1016.8
20180817140507 72 0 0.0 0.0 0.06 0.08 0.08 100 1016.8
20180817135606 71 0 0.0 0.0 0.07 0.08 0.08 100 1016.9
20180817134707 71 0 0.0 0.0 0.07 0.08 0.08 100 1016.9
20180817133807 71 0 0.0 0.0 0.06 0.07 0.07 100 1017.5
20180817132907 71 0 0.0 0.0 0.06 0.06 0.06 100 1017.5
20180817132006 71 0 0.0 0.0 0.04 0.04 0.04 100 1017.5
20180817131106 71 251 0.0 0.9 0.02 0.02 0.02 100 1017.6
20180817130207 70 0 0.0 0.0 0.01 0.01 0.01 100 1017.6
20180817125307 70 0 0.0 0.0 0.01 0.01 0.01 100 1017.5
20180817124406 70 0 0.0 0.0 0.01 0.01 0.01 100 1017.5
20180817123507 70 0 0.0 0.0 0.01 0.01 0.01 100 1017.5
20180817122607 70 0 0.0 0.0 0.00 0.00 0.00 100 1017.5
20180817121706 69 0 0.0 0.0 0.00 0.00 0.00 100 1017.5
20180817120806 69 0 0.0 0.0 0.00 0.00 0.00 100 1017.5
20180817115906 69 0 0.0 0.0 0.00 0.00 0.00 100 1017.1
20180817115007 69 0 0.0 0.0 0.00 0.00 0.00 100 1017.1
20180817114106 68 0 0.0 0.0 0.00 0.00 0.00 100 1017.0
20180817113206 68 0 0.0 0.0 0.00 0.00 0.00 100 1017.0
20180817112307 68 0 0.0 0.0 0.00 0.00 0.00 100 1017.1
20180817111406 68 0 0.0 0.0 0.00 0.00 0.00 100 1017.2
20180817110507 68 0 0.0 0.0 0.00 0.00 0.00 100 1017.2
20180817105607 68 0 0.0 0.0 0.00 0.00 0.00 100 1017.0